Погода в Улу-Теляке

Россия / Республика Башкортостан     54°54′48″N   56°58′36″E
темп.,
°C
ветер,
м/с
пор.,
м/с
влажн.,
%
обл.,
%
осадки,
мм/ч
давл.,
гПа
погр.,
м
20 июня, вс
вс2023:00+17з4149631 1.2 1016560
02:00+16зюз28978 0.5 1015294
05:00+15ююз259947 0.5 1016123
08:00+18зсз379586 0.1 1016580
11:00+24сз495319 0.2 10161758
14:00+25сз610360 0.0 10172052
17:00+23ссз69330 0.0 10181678
20:00+19ссз49450 0.0 1019968
21 июня, пн
пн2123:00+12с22640 0.0 102125
02:00+10ссв11721 0.0 102210
05:00+9с11735 0.0 102410
08:00+16с13494 0.0 1024295
11:00+21ссз35325 0.0 10241383
14:00+24сз353173 0.0 10231718
17:00+23зсз344323 0.0 10231125
20:00+20зюз127019 0.0 102196
22 июня, вт
вт2223:00+14ю11925 0.3 102117
02:00+13ююв229643 0.2 102134
05:00+12ююв229816 0.3 102133
08:00+17ююз239574 0.0 1021282
11:00+22юз237633 0.0 1020595
14:00+28сз46565 0.2 10191572
17:00+27зсз385973 0.5 1018483
20:00+25з38705 0.1 1017348
23 июня, ср
ср2323:00+19зсз13946 0.4 101878
02:00+17юз119520 0.6 101711
05:00+16юв11971 1.5 101815
08:00+19юз129315 0.8 1018232
11:00+26зсз236086 0.9 1017899
14:00+29зсз47489 0.0 10161770
17:00+25ссв368994 2.6 1016353
20:00+20всв379599 3.3 1016269
24 июня, чт
чт2423:00+17св2398100 8.1 101763
02:00+16всв2497100 0.7 101695
05:00+14св229750 0.7 101736
08:00+16св35895 0.0 1017273
11:00+21в45609 0.0 10181109
14:00+23всв45488 0.0 10191461
17:00+22ююз33591 0.0 1020985
20:00+20з23710 0.0 1020119